EWG827 LIMC-EDDK

Flight info

Callsign EWG827
Flight time N/A
Altitude 34000
Route PEPAG DCT ABESI N851 UTAVO DCT ROLSA DCT LADOL T163 KOVAN T844 ASKIK T840 GULKO GULKO1G
Aircraft A319/M-SDE2E3FGIJ1RWXY/EB1

Departure

Time 2026-05-01 14:36
Airport Milan Malpensa International Airport (LIMC)

Arrival

Time N/A
Airport Cologne Bonn Airport (EDDK)
Time Latitude Longitude Altitude Speed Heading
2026-05-01 14:18 45.62538 8.71606 736 ft 0 kts 168°
2026-05-01 14:19 45.62551 8.71602 735 ft 4 kts 166°
2026-05-01 14:19 45.62577 8.71591 734 ft 4 kts 159°
2026-05-01 14:19 45.62601 8.71574 735 ft 4 kts 141°
2026-05-01 14:20 45.62615 8.71548 736 ft 3 kts 91°
2026-05-01 14:20 45.62621 8.71615 736 ft 4 kts 80°
2026-05-01 14:20 45.62626 8.71653 736 ft 4 kts 79°
2026-05-01 14:21 45.62631 8.71691 736 ft 4 kts 79°
2026-05-01 14:21 45.62636 8.71729 736 ft 4 kts 79°
2026-05-01 14:21 45.62638 8.71740 736 ft 0 kts 79°
2026-05-01 14:23 45.62639 8.71746 736 ft 2 kts 79°
2026-05-01 14:23 45.62642 8.71771 735 ft 4 kts 79°
2026-05-01 14:24 45.62651 8.71838 736 ft 10 kts 79°
2026-05-01 14:24 45.62667 8.71954 737 ft 13 kts 79°
2026-05-01 14:24 45.62684 8.72082 737 ft 10 kts 85°
2026-05-01 14:24 45.62635 8.72144 737 ft 12 kts 167°
2026-05-01 14:25 45.62546 8.72170 736 ft 14 kts 168°
2026-05-01 14:25 45.62439 8.72201 737 ft 17 kts 168°
2026-05-01 14:25 45.62316 8.72235 737 ft 16 kts 171°
2026-05-01 14:25 45.62242 8.72254 737 ft 8 kts 165°
2026-05-01 14:26 45.62224 8.72329 737 ft 10 kts 81°
2026-05-01 14:26 45.62254 8.72556 737 ft 14 kts 77°
2026-05-01 14:26 45.62275 8.72709 737 ft 17 kts 79°
2026-05-01 14:27 45.62297 8.72877 736 ft 16 kts 79°
2026-05-01 14:27 45.62297 8.73007 737 ft 11 kts 128°
2026-05-01 14:27 45.62246 8.73035 737 ft 13 kts 169°
2026-05-01 14:28 45.62037 8.73091 736 ft 18 kts 169°
2026-05-01 14:28 45.61906 8.73126 737 ft 20 kts 169°
2026-05-01 14:28 45.61792 8.73161 736 ft 15 kts 162°
2026-05-01 14:28 45.61709 8.73267 736 ft 18 kts 126°
2026-05-01 14:29 45.61643 8.73406 737 ft 11 kts 122°
2026-05-01 14:29 45.61615 8.73470 737 ft 9 kts 122°
2026-05-01 14:30 45.61584 8.73595 737 ft 0 kts 79°
2026-05-01 14:35 45.61587 8.73622 737 ft 7 kts 80°
2026-05-01 14:35 45.61599 8.73715 737 ft 6 kts 78°
2026-05-01 14:35 45.61648 8.73729 737 ft 10 kts 349°
2026-05-01 14:35 45.61743 8.73702 738 ft 21 kts 349°
2026-05-01 14:36 45.62110 8.73603 738 ft 89 kts 348°
2026-05-01 14:36 45.62924 8.73375 736 ft 148 kts 349°
2026-05-01 14:36 45.64043 8.73058 1108 ft 166 kts 349°
2026-05-01 14:36 45.65162 8.72775 1907 ft 162 kts 351°
2026-05-01 14:37 45.66301 8.72638 2504 ft 170 kts
2026-05-01 14:37 45.67508 8.72781 3077 ft 178 kts
2026-05-01 14:37 45.68769 8.72862 3705 ft 185 kts
2026-05-01 14:37 45.70082 8.72849 4356 ft 192 kts 360°
2026-05-01 14:38 45.71435 8.72895 5013 ft 198 kts
2026-05-01 14:38 45.72720 8.73697 5559 ft 212 kts 40°
2026-05-01 14:38 45.73645 8.75427 6180 ft 228 kts 63°
2026-05-01 14:38 45.74265 8.77581 6952 ft 240 kts 72°
2026-05-01 14:39 45.74485 8.79976 7785 ft 247 kts 93°
2026-05-01 14:39 45.74107 8.82403 8678 ft 254 kts 111°
2026-05-01 14:39 45.73335 8.84707 9594 ft 262 kts 120°
2026-05-01 14:39 45.72296 8.86886 10477 ft 267 kts 125°
2026-05-01 14:40 45.71211 8.89070 11355 ft 271 kts 124°
2026-05-01 14:40 45.70364 8.91510 12143 ft 276 kts 103°
2026-05-01 14:40 45.70278 8.94231 13070 ft 276 kts 78°
2026-05-01 14:40 45.71005 8.96750 13972 ft 276 kts 54°
2026-05-01 14:41 45.72391 8.98638 14793 ft 279 kts 31°
2026-05-01 14:41 45.74210 8.99612 15576 ft 284 kts 14°
2026-05-01 14:41 45.76210 9.00249 15893 ft 306 kts 13°
2026-05-01 14:41 45.78372 9.00917 16088 ft 330 kts 13°
2026-05-01 14:42 45.80681 9.01624 16407 ft 346 kts 13°
2026-05-01 14:42 45.83059 9.02355 17040 ft 352 kts 13°
2026-05-01 14:42 45.85466 9.03097 17762 ft 356 kts 13°
2026-05-01 14:42 45.87896 9.03851 18468 ft 359 kts 13°
2026-05-01 14:43 45.90350 9.04616 19111 ft 363 kts 13°
2026-05-01 14:43 45.92823 9.05391 19757 ft 365 kts 13°
2026-05-01 14:43 45.95316 9.06174 20412 ft 368 kts 13°
2026-05-01 14:43 45.97847 9.06816 21069 ft 372 kts
2026-05-01 14:44 46.00443 9.06824 21713 ft 376 kts 356°
2026-05-01 14:44 46.05680 9.05972 22963 ft 381 kts 354°
2026-05-01 14:44 46.08327 9.05539 23588 ft 384 kts 354°
2026-05-01 14:45 46.10995 9.05102 24123 ft 388 kts 355°
2026-05-01 14:45 46.16400 9.04222 25102 ft 394 kts 354°
2026-05-01 14:45 46.19136 9.03810 25572 ft 397 kts 355°
2026-05-01 14:46 46.21896 9.03434 26039 ft 400 kts 355°
2026-05-01 14:46 46.27474 9.02726 26960 ft 406 kts 355°
2026-05-01 14:46 46.30296 9.02365 27443 ft 408 kts 355°
2026-05-01 14:47 46.33137 9.01992 27884 ft 411 kts 355°
2026-05-01 14:47 46.35981 9.01614 28316 ft 415 kts 355°
2026-05-01 14:47 46.38881 9.01225 28764 ft 418 kts 355°
2026-05-01 14:48 46.44714 9.00435 29642 ft 424 kts 355°
2026-05-01 14:48 46.47661 9.00036 30065 ft 427 kts 355°
2026-05-01 14:48 46.53611 8.99229 30811 ft 432 kts 355°
2026-05-01 14:49 46.59634 8.98419 31498 ft 437 kts 355°
2026-05-01 14:49 46.65763 8.97597 32179 ft 441 kts 355°
2026-05-01 14:50 46.69805 8.97055 32804 ft 440 kts 355°
2026-05-01 14:50 46.77933 8.95954 34067 ft 437 kts 354°
2026-05-01 14:51 46.80965 8.95540 34279 ft 437 kts 355°
2026-05-01 14:51 46.86877 8.94727 34296 ft 420 kts 354°
2026-05-01 14:52 46.95574 8.93534 34299 ft 418 kts 354°
2026-05-01 14:53 47.04256 8.92344 34293 ft 418 kts 354°
2026-05-01 14:53 47.10045 8.91545 34291 ft 418 kts 354°
2026-05-01 14:54 47.15833 8.90743 34278 ft 418 kts 354°
2026-05-01 14:54 47.21621 8.89942 34282 ft 418 kts 354°
2026-05-01 14:55 47.27409 8.89140 34275 ft 418 kts 355°
2026-05-01 14:55 47.33216 8.89219 34270 ft 418 kts
2026-05-01 14:56 47.39025 8.89647 34267 ft 418 kts
2026-05-01 14:56 47.44825 8.90076 34266 ft 418 kts
2026-05-01 14:57 47.50635 8.90493 34268 ft 418 kts
2026-05-01 14:57 47.59349 8.91121 34273 ft 418 kts
2026-05-01 14:58 47.65155 8.91552 34279 ft 418 kts